Regional Weather Roundup
Issued by NWS Charleston, WV

Home | Current Version | Previous Version | Text Only | Print | Product List | Glossary Off
Versions: 1 2 3 4 5 6 7 8 9 10 11 12 13 14 15 16 17 18 19 20 21 22 23 24 25 26 27 28 29 30 31 32 33 34 35 36 37 38 39 40 41 42 43 44 45 46 47 48 49 50

000
ASUS41 KRLX 280610
RWRRLX
West Virginia Regional Weather Roundup
National Weather Service Charleston WV
200 AM EDT TUE JUL 28 2015

Note: "fair" indicates few or no clouds below 12,000 feet with no
significant weather and/or obstructions to visibility.

WVZ003-280700-
Northern Panhandle of West Virginia

CITY           SKY/WX    TMP DP  RH WIND       PRES   REMARKS
WHEELING       CLEAR     72  64  76 NE5       30.03S
$$

WVZ009-280700-
Northwest West Virginia

CITY           SKY/WX    TMP DP  RH WIND       PRES   REMARKS
PARKERSBURG    PTCLDY    71  69  93 CALM      30.02F FOG
$$

WVZ006-280700-
Western West Virginia

CITY           SKY/WX    TMP DP  RH WIND       PRES   REMARKS
HUNTINGTON     MOCLDY    72  72 100 SE3       29.99F FOG
$$

WVZ015-280700-
West Central West Virginia

CITY           SKY/WX    TMP DP  RH WIND       PRES   REMARKS
CHARLESTON     MOCLDY    71  69  93 CALM      30.01F
$$

WVZ022-031-280700-
North Central West Virginia

CITY           SKY/WX    TMP DP  RH WIND       PRES   REMARKS
CLARKSBURG     CLEAR     69  68  96 SW3       30.02F FOG
MORGANTOWN     CLEAR     71  66  84 SE5       30.04F
$$

WVZ025-035-042-045-280700-
Southern West Virginia

CITY           SKY/WX    TMP DP  RH WIND       PRES   REMARKS
BECKLEY        MOCLDY    70  66  87 CALM      30.10S
LOGAN          CLOUDY    73  70  88 CALM      30.01F
BLUEFIELD      CLOUDY    73  67  81 SW3       30.13R
LEWISBURG      PTCLDY    67  65  93 NE3       30.11S
$$

WVZ047-280700-
Northern Mountains of West Virginia

CITY           SKY/WX    TMP DP  RH WIND       PRES   REMARKS
ELKINS         PTCLDY    69  66  90 CALM      30.08S
$$

WVZ052-280700-
Eastern Panhandle of West Virginia

CITY           SKY/WX    TMP DP  RH WIND       PRES   REMARKS
MARTINSBURG    CLEAR     71  69  93 CALM      30.03S FOG
PETERSBURG     PTCLDY   N/A N/A N/A CALM      30.05S FOG
$$



USA.gov is the U.S. government's official web portal to all federal, state and local government web resources and services.